sat.trackr.live / text

‹ back to catalog

STARLINK-36122

NORAD 66952 · 2025-286AD

PAYLOAD ACTIVE UNKNOWN

§ Identity

Operator
Country
US
Launch date
2025-12-07
Launch site
AFWTR
Launch vehicle
Mass (kg)
RCS (m²)

Purposes: comms

External: N2YO · Heavens-Above · Gunter

§ Orbital elements

Epoch: 2026-09-20T00:12:46.114848Z

Period
93.85 min
Inclination
53.1585°
Eccentricity
0.0001010
Mean motion
15.34396030 rev/d
Perigee alt
462.0 km
Apogee alt
463.4 km
Semi-major
6,840.9 km
B*
4.6184e-4
RAAN
171.9050°
Arg perigee
54.0558°
Mean anomaly
306.0538°
Rev number
4,522

§ Raw data

STARLINK-361221 66952U 25286AD  26263.00886707  .00015258  00000+0  46184-3 0  99922 66952  53.1585 171.9050 0001010  54.0558 306.0538 15.34396030 45221

JSON: /api/v1/satellites/66952 · /tle

For live sub-satellite position, see the globe view (requires WebGL).

§ Visibility from observer

Set your observer location to see the next 7 days of passes ≥ 10°. The values pass through the URL so the page stays shareable.

No JS? Fill the form by hand. The geolocation button needs JavaScript.